Regional Weather Roundup
Issued by NWS

Home | Current Version | Previous Version | Text Only | Print | Product List | Glossary Off
Versions: 1 2 3 4 5 6 7 8 9 10 11 12 13 14 15 16 17 18 19 20 21 22 23 24 25 26 27 28 29 30 31 32 33 34 35 36 37 38 39 40 41 42 43 44 45 46 47 48 49 50

037
ASUS45 KCYS 241610
RWRWY

WYOMING REGIONAL WEATHER ROUNDUP
NATIONAL WEATHER SERVICE CHEYENNE WY
900 AM MST SAT FEB 24 2018

NOTE:  "FAIR" INDICATES FEW OR NO CLOUDS BELOW 12,000 FEET
WITH NO SIGNIFICANT WEATHER AND/OR OBSTRUCTIONS TO VISIBILITY.

WYZ001-241700-
YELLOWSTONE NATIONAL PARK

CITY           SKY/WX    TMP DP  RH WIND       PRES   REMARKS
LK YELLOWSTONE   N/A      5  -1  76 VRB6      29.79R WCI  -6
W YELLOWSTONE  NOT AVBL

$$
WYZ002>013-054>058-071-098>099-241700-
NORTHERN WYOMING

CITY           SKY/WX    TMP DP  RH WIND       PRES   REMARKS
JACKSON        LGT SNOW  12   4  70 S16       29.88F WCI  -5
CODY           FAIR      21   2  43 W23G30    29.76F WCI   5
GREYBULL       CLOUDY    -6  -7  95 CALM      29.86S FOG
WORLAND        CLOUDY     4   3  96 S6        29.84S WCI  -7
SHERIDAN       CLOUDY    15   2  56 CALM      29.77S
BUFFALO        PTSUNNY   14  -1  51 S8        29.73S WCI   3
GILLETTE       FAIR       8   1  73 CALM      29.76R
HULETT         FAIR      21   9  58 NW5       29.76R WCI  15
NEWCASTLE      LGT SNOW  10   7  85 CALM      29.74F

$$
WYZ014>020-022>026-101>103-241700-
CENTRAL WYOMING

CITY           SKY/WX    TMP DP  RH WIND       PRES   REMARKS
BIG PINEY      FAIR       4  -4  69 CALM      29.90R
PINEDALE       FAIR       3   0  85 CALM      29.90S
DUBOIS           N/A    N/A N/A N/A MISG        N/A
LANDER         FAIR      13   2  61 NW6       29.80R WCI   4
RIVERTON       FAIR      18   0  45 W25G33    29.79R WCI   0
CASPER         CLOUDY    11   2  67 SW22      29.80S WCI  -8
DOUGLAS        FAIR      16   3  56 VRB3      29.76F

$$
WYZ021-027>030-104>119-241700-
SOUTHERN WYOMING

CITY           SKY/WX    TMP DP  RH WIND       PRES   REMARKS
EVANSTON       CLOUDY    10   7  87 SW21      29.96S WCI  -9
ROCK SPRINGS   MIX PCPN  10   3  73 W28G33    29.92S WCI -12
DIXON          CLOUDY     9  -1  63 CALM      29.98F
RAWLINS        CLOUDY     9   3  77 W24G37    29.84F HAZE    WCI -12
SARATOGA       CLOUDY    10   3  72 W25G35    29.86F WCI -10
LARAMIE        FAIR       9  -1  64 W26G37    29.73S WCI -13
CHEYENNE       FAIR      18   1  47 W31G41    29.72R WCI  -2
TORRINGTON     FAIR      23   7  50 W22G29    29.77F WCI   8
PINE BLUFFS    FAIR      19   3  49 MISG      29.77F

$$




USA.gov is the U.S. government's official web portal to all federal, state and local government web resources and services.